| time (UTC) | temp F | wind direction | speed knots | gust knots | rain 1hr in | rain 24hr in | rain mn in | humidity % | barometer mb |
| 20260903134553 | 75 | 360 | 3.5 | 7.0 | 0.00 | 0.00 | 0.00 | 94 | 1015.5 |
| 20260903133053 | 75 | 37 | 4.3 | 8.7 | 0.00 | 0.00 | 0.00 | 94 | 1015.6 |
| 20260903131551 | 75 | 28 | 4.3 | 8.7 | 0.00 | 0.00 | 0.00 | 94 | 1015.9 |
| 20260903130105 | 75 | 18 | 3.5 | 9.6 | 0.00 | 0.00 | 0.00 | 94 | 1016.0 |
| 20260903124541 | 74 | 349 | 5.2 | 9.6 | 0.00 | 0.00 | 0.00 | 94 | 1016.1 |
| 20260903123050 | 75 | 328 | 1.7 | 9.6 | 0.00 | 0.00 | 0.00 | 94 | 1016.2 |
| 20260903121548 | 75 | 28 | 1.7 | 6.1 | 0.00 | 0.00 | 0.00 | 94 | 1015.7 |
| 20260903120045 | 75 | 261 | 0.0 | 0.0 | 0.00 | 0.00 | 0.00 | 94 | 1015.3 |
| 20260903114553 | 74 | 261 | 0.0 | 0.0 | 0.00 | 0.00 | 0.00 | 94 | 1015.1 |
| 20260903113051 | 74 | 261 | 0.0 | 0.0 | 0.00 | 0.00 | 0.00 | 94 | 1014.9 |
| 20260903111559 | 74 | 261 | 0.0 | 3.5 | 0.00 | 0.00 | 0.00 | 94 | 1014.7 |
| 20260903110110 | 74 | 178 | 0.0 | 0.0 | 0.00 | 0.00 | 0.00 | 94 | 1014.4 |
| 20260903104541 | 74 | 209 | 0.0 | 1.7 | 0.00 | 0.00 | 0.00 | 94 | 1014.3 |
| 20260903103051 | 74 | 165 | 1.7 | 3.5 | 0.00 | 0.00 | 0.00 | 93 | 1014.2 |
| 20260903101552 | 74 | 182 | 1.7 | 4.3 | 0.00 | 0.00 | 0.00 | 93 | 1014.1 |
| 20260903100059 | 74 | 187 | 2.6 | 4.3 | 0.00 | 0.00 | 0.00 | 93 | 1014.0 |
| 20260903094555 | 74 | 113 | 0.0 | 0.0 | 0.00 | 0.00 | 0.00 | 93 | 1014.3 |
| 20260903093049 | 74 | 90 | 0.0 | 1.7 | 0.00 | 0.00 | 0.00 | 93 | 1014.5 |
| 20260903091554 | 74 | 130 | 0.0 | 0.0 | 0.00 | 0.00 | 0.00 | 93 | 1014.4 |
| 20260903090053 | 74 | 320 | 0.0 | 0.0 | 0.00 | 0.00 | 0.00 | 93 | 1014.4 |
| 20260903084552 | 74 | 44 | 0.0 | 1.7 | 0.00 | 0.00 | 0.00 | 92 | 1014.3 |
| 20260903083048 | 74 | 145 | 1.7 | 3.5 | 0.00 | 0.00 | 0.00 | 92 | 1014.1 |
| 20260903081557 | 74 | 113 | 0.9 | 4.3 | 0.00 | 0.00 | 0.00 | 92 | 1014.2 |
| 20260903080054 | 74 | 157 | 0.0 | 0.0 | 0.00 | 0.00 | 0.00 | 92 | 1013.8 |
| 20260903074605 | 74 | 117 | 0.0 | 1.7 | 0.00 | 0.00 | 0.00 | 92 | 1014.3 |
| 20260903073050 | 74 | 209 | 1.7 | 4.3 | 0.00 | 0.00 | 0.00 | 91 | 1013.8 |
| 20260903071557 | 74 | 125 | 1.7 | 5.2 | 0.00 | 0.00 | 0.00 | 91 | 1013.8 |
| 20260903070056 | 75 | 155 | 1.7 | 5.2 | 0.00 | 0.00 | 0.00 | 90 | 1013.8 |
| 20260903064603 | 75 | 170 | 2.6 | 3.5 | 0.00 | 0.00 | 0.00 | 90 | 1014.0 |
| 20260903063050 | 75 | 133 | 0.0 | 0.0 | 0.00 | 0.00 | 0.00 | 90 | 1014.2 |
| 20260903061552 | 75 | 120 | 0.0 | 3.5 | 0.00 | 0.00 | 0.00 | 89 | 1014.4 |
| 20260903054618 | 76 | 119 | 0.0 | 0.0 | 0.00 | 0.00 | 0.00 | 88 | 1015.0 |
| 20260903053118 | 76 | 103 | 0.0 | 3.5 | 0.00 | 0.00 | 0.00 | 88 | 1015.0 |
| 20260903051603 | 75 | 129 | 0.0 | 2.6 | 0.00 | 0.00 | 0.00 | 89 | 1014.9 |
| 20260903050129 | 75 | 130 | 0.0 | 0.0 | 0.00 | 0.00 | 0.00 | 90 | 1015.0 |
| 20260903044607 | 74 | 182 | 0.0 | 0.0 | 0.00 | 0.00 | 0.00 | 91 | 1015.3 |
| 20260903043103 | 74 | 20 | 0.0 | 0.0 | 0.00 | 0.00 | 0.00 | 91 | 1015.4 |
| 20260903040039 | 74 | 20 | 0.0 | 3.5 | 0.00 | 0.00 | 0.00 | 90 | 1015.1 |
| 20260903034545 | 75 | 43 | 2.6 | 4.3 | 0.00 | 0.00 | 0.00 | 90 | 1014.9 |
| 20260903033043 | 76 | 29 | 0.0 | 0.0 | 0.00 | 0.00 | 0.00 | 90 | 1014.8 |
| 20260903031542 | 76 | 32 | 0.0 | 0.0 | 0.00 | 0.00 | 0.00 | 89 | 1014.7 |
| 20260903030045 | 76 | 355 | 0.0 | 0.0 | 0.00 | 0.00 | 0.00 | 87 | 1014.7 |
| 20260903024547 | 77 | 275 | 0.0 | 4.3 | 0.00 | 0.00 | 0.00 | 87 | 1014.6 |
| 20260903023043 | 77 | 273 | 0.0 | 2.6 | 0.00 | 0.00 | 0.00 | 86 | 1014.7 |
| 20260903021553 | 77 | 273 | 0.0 | 0.0 | 0.00 | 0.00 | 0.00 | 85 | 1014.7 |
| 20260903020037 | 77 | 267 | 1.7 | 5.2 | 0.00 | 0.00 | 0.00 | 85 | 1014.9 |
| 20260903014544 | 77 | 286 | 1.7 | 7.0 | 0.00 | 0.00 | 0.00 | 84 | 1015.1 |
| 20260903013043 | 78 | 254 | 0.9 | 3.5 | 0.00 | 0.00 | 0.00 | 83 | 1015.2 |
| 20260903011545 | 78 | 255 | 0.0 | 2.6 | 0.00 | 0.00 | 0.00 | 82 | 1015.1 |
| 20260903010047 | 78 | 286 | 0.0 | 2.6 | 0.00 | 0.00 | 0.00 | 80 | 1015.5 |
| 20260903004557 | 78 | 347 | 0.0 | 0.0 | 0.00 | 0.00 | 0.00 | 79 | 1015.4 |
| 20260903003044 | 79 | 329 | 0.0 | 2.6 | 0.00 | 0.00 | 0.00 | 78 | 1015.2 |
| 20260903001541 | 79 | 23 | 0.0 | 3.5 | 0.00 | 0.00 | 0.00 | 77 | 1015.0 |
| 20260903000040 | 80 | 331 | 0.0 | 4.3 | 0.00 | 0.00 | 0.00 | 77 | 1015.1 |
| 20260902234541 | 80 | 11 | 0.0 | 0.0 | 0.00 | 0.00 | 0.00 | 75 | 1014.9 |
| 20260902233044 | 81 | 61 | 0.0 | 0.0 | 0.00 | 0.00 | 0.00 | 74 | 1015.2 |
| 20260902231548 | 81 | 115 | 0.0 | 5.2 | 0.00 | 0.00 | 0.00 | 75 | 1015.5 |
| 20260902230039 | 81 | 117 | 0.9 | 4.3 | 0.00 | 0.00 | 0.00 | 74 | 1015.8 |
| 20260902224546 | 81 | 179 | 0.0 | 0.0 | 0.00 | 0.00 | 0.00 | 75 | 1015.6 |
| 20260902223043 | 81 | 134 | 0.0 | 3.5 | 0.00 | 0.00 | 0.00 | 75 | 1015.8 |
| 20260902221540 | 81 | 138 | 3.5 | 6.1 | 0.00 | 0.00 | 0.00 | 74 | 1016.1 |
| 20260902220052 | 81 | 138 | 1.7 | 7.8 | 0.00 | 0.00 | 0.00 | 73 | 1015.0 |
| 20260902214550 | 81 | 118 | 3.5 | 6.1 | 0.00 | 0.00 | 0.00 | 73 | 1015.3 |
| 20260902213040 | 81 | 127 | 2.6 | 7.8 | 0.00 | 0.00 | 0.00 | 73 | 1015.2 |
| 20260902211550 | 81 | 84 | 2.6 | 6.1 | 0.00 | 0.00 | 0.00 | 74 | 1015.5 |
| 20260902210050 | 81 | 118 | 5.2 | 8.7 | 0.00 | 0.00 | 0.00 | 74 | 1015.5 |
| 20260902204550 | 82 | 103 | 5.2 | 13.9 | 0.00 | 0.00 | 0.00 | 72 | 1016.2 |
| 20260902203041 | 84 | 103 | 5.2 | 10.4 | 0.00 | 0.00 | 0.00 | 69 | 1015.9 |
| 20260902201603 | 84 | 144 | 7.8 | 13.9 | 0.00 | 0.00 | 0.00 | 69 | 1016.1 |
| 20260902200046 | 84 | 136 | 5.2 | 9.6 | 0.00 | 0.00 | 0.00 | 69 | 1016.2 |
| 20260902194543 | 85 | 108 | 5.2 | 16.5 | 0.00 | 0.00 | 0.00 | 68 | 1016.8 |
| 20260902193049 | 88 | 79 | 19.1 | 29.5 | 0.00 | 0.00 | 0.00 | 63 | 1016.6 |
| 20260902191549 | 93 | 93 | 8.7 | 13.9 | 0.00 | 0.00 | 0.00 | 62 | 1015.7 |
| 20260902190042 | 92 | 71 | 4.3 | 14.8 | 0.00 | 0.00 | 0.00 | 62 | 1015.5 |
| 20260902184543 | 93 | 90 | 4.3 | 13.0 | 0.00 | 0.00 | 0.00 | 61 | 1016.1 |
| 20260902183050 | 93 | 125 | 6.1 | 10.4 | 0.00 | 0.00 | 0.00 | 60 | 1016.2 |
| 20260902181554 | 93 | 94 | 3.5 | 8.7 | 0.00 | 0.00 | 0.00 | 60 | 1016.1 |
| 20260902180055 | 93 | 5 | 3.5 | 5.2 | 0.00 | 0.00 | 0.00 | 60 | 1016.3 |
| 20260902174549 | 93 | 88 | 3.5 | 7.0 | 0.00 | 0.00 | 0.00 | 60 | 1016.6 |
| 20260902173040 | 93 | 92 | 4.3 | 8.7 | 0.00 | 0.00 | 0.00 | 60 | 1016.5 |
| 20260902171540 | 92 | 65 | 1.7 | 7.8 | 0.00 | 0.00 | 0.00 | 61 | 1016.6 |
| 20260902170050 | 91 | 319 | 1.7 | 8.7 | 0.00 | 0.00 | 0.00 | 62 | 1016.5 |
| 20260902164552 | 91 | 144 | 0.9 | 7.0 | 0.00 | 0.00 | 0.00 | 62 | 1016.8 |
| 20260902163047 | 91 | 113 | 3.5 | 6.1 | 0.00 | 0.00 | 0.00 | 62 | 1016.7 |
| 20260902161600 | 91 | 111 | 2.6 | 7.0 | 0.00 | 0.00 | 0.00 | 62 | 1016.7 |
| 20260902160049 | 90 | 165 | 0.0 | 3.5 | 0.00 | 0.00 | 0.00 | 62 | 1016.7 |
| 20260902154557 | 90 | 133 | 2.6 | 7.0 | 0.00 | 0.00 | 0.00 | 63 | 1016.5 |
| 20260902153050 | 89 | 59 | 0.9 | 3.5 | 0.00 | 0.00 | 0.00 | 65 | 1016.7 |
| 20260902151545 | 88 | 72 | 0.9 | 5.2 | 0.00 | 0.00 | 0.00 | 67 | 1016.8 |
| 20260902150041 | 87 | 349 | 2.6 | 7.0 | 0.00 | 0.00 | 0.00 | 67 | 1017.0 |
| 20260902144550 | 87 | 66 | 3.5 | 7.0 | 0.00 | 0.00 | 0.00 | 67 | 1016.9 |
| 20260902143056 | 86 | 35 | 2.6 | 7.8 | 0.00 | 0.00 | 0.00 | 73 | 1017.1 |
| 20260902141541 | 86 | 355 | 0.9 | 4.3 | 0.00 | 0.00 | 0.00 | 73 | 1016.7 |
| 20260902140042 | 84 | 5 | 0.9 | 4.3 | 0.00 | 0.00 | 0.00 | 76 | 1016.7 |